SCP
0 0 0 0 0 0 0 0 0 0 0 0 0 0 0 0 0 0 0 0 0 0 0 0 0 0 0 0 0 0 0 0 0 0 0 0 0 0 0 0 0 0 0 0
0 0 0 0 0 0 0 0 0 0 0 0 0 0 0 0 0 0 0 0 0 0 0 0 0 0 0 0 0 0 0 0 0 0 0 0 0 0 0 0 0 0 0 0
0 0 0 0 0 0 0 0 0 0 0 0 0 0 0 0 0 0 0 0 0 0 0 0 0 0 0 0 0 0 0 0 0 0 0 0 0 0 0 0 0 0 0 0
0 0 0 0 0 0 0 0 0 0 0 0 0 0 0 0 0 0 0 0 0 0 0 0 0 0 0 0 0 0 0 0 0 0 0 0 0 0 0 0 0 0 0 0
0 0 0 0 0 0 0 0 0 0 0 0 0 0 0 0 0 0 0 0 0 0 0 0 0 0 0 0 0 0 0 0 0 0 0 0 0 0 0 0 0 0 0 0
0 0 0 0 0 0 0 0 0 0 0 0 0 0 0 0 0 0 0 0 0 0 0 0 0 0 0 0 0 0 0 0 0 0 0 0 0 0 0 0 0 0 0 0
0 0 0 0 0 0 0 0 0 0 0 0 0 0 0 0 -0 -0 -0 0 0 0 0 0 0 0 0 0 0 0 0 0 0 0 0 0 0 0 0 0 0 0 0 0
0 0 0 0 0 0 0 0 0 0 0 0 0 0 0 0 0 0 0 0 0 0 0 0 0 0 0 0 0 0 0 0 0 0 0 0 0 0 0 0 0 0 0 0
0 0 0 0 0 0 0 0 0 0 0 0 0 0 0 0 0 0 0 0 0 0 0 0 0 0 0 0 0 0 0 0 0 0 0 0 0 0 0 0 0 0 0 0
0 0 0 0 0 0 0 0 0 0 0 0 0 0 0 0 0 0 0 0 0 0 0 0 0 0 0 0 0 0 0 0 0 0 0 0 0 0 0 0 0 0 0 0
0 0 0 0 0 0 0 0 0 0 0 0 0 0 0 0 0 0 0 0 0 0 0 0 0 0 0 0 0 0 0 0 0 0 0 0 0 0 0 0 0 0 0 0
0 0 0 0 0 0 0 0 0 0 0 0 0 0 0 0 0 0 0 0 0 0 0 0 0 0 0 0 0 0 0 0 0 0 0 0 0 0 0 0 0 0 0 0
0 0 0 0 0 0 0 0 0 0 0 0 0 0 0 0 0 0 0 0 0 0 0 0 0 0 0 0 0 0 0 0 0 0 0 0 0 0 0 0 0 0 0 0
0 0 0 0 0 0 0 0 0 0 0 0 0 0 0 0 0 0 0 0 0 0 0 0 0 0 0 0 0 0 0 0 0 0 0 0 0 0 0 0 0 0 0 0
0 0 0 0 0 0 0 0 0 0 0 0 0 0 0 0 0 0 0 0 0 0 0 0 0 0 0 0 0 0 0 0 0 0 0 0 0 0 0 0 0 0 0 0
0 0 0 0 0 0 0 0 0 0 0 0 0 0 0 0 0 0 0 0 0 0 0 0 0 0 0 0 0 0 0 0 0 0 0 0 0 0 0 0 0 0 0 0
0 0 0 0 0 0 0 0 0 0 0 0 0 0 0 0 0 0 0 0 0 0 0 0 0 0 0 0 0 0 0 0 0 0 0 0 0 0 0 0 0 0 0 0
0 0 0 0 0 0 0 0 0 0 0 0 -0 0 0 0 0 0 0 0 0 0 0 0 0 0 0 0 0 0 0 0 0 0 0 0 0 0 0 0 0 0 0 0
0 0 0 0 0 0 0 0 0 0 0 0 -0 -0 -0 -0 0 0 0 0 0 0 0 0 0 0 0 0 0 0 0 0 0 0 0 0 0 0 0 0 0 0 0 0
0 0 0 0 0 0 0 0 0 0 0 -0 -0 -0 0 0 0 0 0 0 0 0 0 0 0 0 0 0 0 0 0 0 0 0 0 0 0 0 0 0 0 0 0 0
0 0 0 0 0 0 0 0 0 0 0 0 0 0 0 0 0 0 0 0 0 0 0 0 0 0 0 0 0 0 0 0 0 0 0 0 0 0 0 0 0 0 0 0
0 0 0 0 0 0 0 0 0 0 0 0 0 0 0 0 0 0 0 0 0 0 0 0 0 0 0 0 0 0 0 0 0 0 0 0 0 0 0 0 0 0 0 0
0 0 0 0 0 0 0 0 0 0 0 0 0 0 0 0 0 0 0 0 0 0 0 0 0 0 0 0 0 0 0 0 0 0 0 0 0 0 0 0 0 0 0 0
0 0 0 0 0 0 0 0 0 0 0 0 0 0 0 0 0 0 0 0 0 0 0 0 0 0 0 0 0 0 0 0 0 0 0 0 0 0 0 0 0 0 0 0
0 0 0 0 0 0 0 0 0 0 0 0 0 0 0 0 0 0 0 0 0 0 0 0 0 0 0 0 0 0 0 0 0 0 0 0 0 0 0 0 0 0 0 0
0 0 0 0 0 0 0 0 0 0 0 0 0 0 0 0 0 0 0 0 0 0 0 0 0 0 0 0 0 0 0 0 0 0 0 0 0 0 0 0 0 0 0 0
0 0 0 0 0 0 0 0 0 0 0 0 0 0 0 0 0 0 0 0 0 0 0 0 0 0 0 0 0 0 0 0 0 0 0 0 0 0 0 0 0 0 -0 -0
Wind_Speed
9 9 6 8 10 10 13 14 15 21 22 27 22 17 15 13 12 12 12 11 10 9 8 7 6 7 8 9 9 10 12 15 18 16 14 14 14 14 14 14 14 12 12 11
7 9 9 10 14 18 19 16 16 21 25 21 13 9 9 10 10 11 11 11 10 9 9 9 8 7 8 9 9 11 14 16 14 12 13 14 14 13 13 13 12 12 12 11
8 5 5 11 15 18 11 10 10 14 14 9 12 13 11 10 9 9 10 10 10 10 9 9 9 8 8 9 8 11 14 14 13 13 14 15 14 14 14 14 13 12 12 11
4 1 12 12 5 9 11 12 11 10 10 10 11 11 9 6 5 8 10 10 10 10 10 10 9 8 7 6 7 9 12 13 12 13 14 13 14 15 15 12 12 12 12 12
3 6 13 9 9 7 8 9 6 6 6 7 7 7 5 3 4 7 9 11 11 10 10 10 11 9 7 7 7 9 12 13 12 12 13 14 15 15 14 12 12 12 10 12
4 6 11 10 6 0 1 7 3 2 4 6 7 9 9 9 11 11 11 10 10 10 10 11 11 7 7 8 8 11 12 12 11 12 14 15 16 14 12 12 12 12 11 11
7 9 13 10 4 1 4 7 2 3 6 7 6 8 11 12 12 11 11 12 10 10 9 11 10 7 8 10 12 12 9 8 10 12 14 14 12 11 10 11 10 11 11 10
6 7 13 6 3 5 8 5 6 8 8 9 11 11 11 11 11 11 11 11 10 9 10 11 9 7 10 13 12 9 8 8 9 10 10 10 10 10 10 11 11 11 9 8
12 12 8 3 7 7 6 9 10 9 10 11 11 11 11 11 11 11 11 11 9 9 11 12 9 7 11 13 10 9 8 9 8 8 9 9 10 10 10 10 9 9 9 9
10 13 12 11 10 10 12 13 11 10 10 10 11 11 11 10 10 10 10 10 9 10 11 13 11 9 10 12 10 9 9 8 6 7 8 8 8 9 10 11 10 10 10 9
14 14 12 10 11 11 10 10 11 10 8 7 7 9 9 9 10 10 10 9 8 10 11 13 13 12 11 10 9 9 9 8 6 7 7 8 9 10 11 11 13 12 10 9
20 14 13 14 10 11 11 9 7 6 5 6 6 8 9 9 9 10 11 10 10 11 12 13 13 14 13 10 8 8 9 7 5 5 6 7 7 8 17 16 20 22 17 12
20 16 14 15 11 7 6 4 2 2 4 6 7 7 8 9 9 10 12 12 12 12 13 13 13 14 13 10 8 8 9 8 5 6 7 7 8 8 8 12 19 21 20 19
10 10 11 9 7 3 1 1 2 4 5 6 7 8 9 10 10 12 13 12 12 13 14 13 13 14 12 9 8 9 9 10 8 6 7 7 8 8 8 8 9 9 15 20
7 6 7 6 2 1 1 2 4 6 7 8 8 9 10 11 13 14 14 13 12 12 13 13 13 15 12 9 9 9 8 6 6 6 6 7 7 7 7 8 8 7 5 9
6 4 3 2 2 2 3 4 5 8 9 9 11 12 12 12 13 14 14 12 12 14 14 14 15 14 12 10 9 8 7 12 10 6 6 6 7 7 8 8 8 7 8 8
4 3 2 2 3 4 4 6 7 9 10 11 13 13 13 13 14 14 14 12 11 13 14 14 14 13 11 10 9 8 7 8 12 8 6 7 7 8 8 8 8 8 7 9
5 4 4 4 4 5 7 8 9 10 11 12 12 12 13 14 15 16 15 14 14 14 14 13 12 11 10 9 8 7 6 6 6 6 5 6 7 7 7 8 8 8 5 8
1 2 3 5 5 6 7 9 10 10 11 11 11 13 13 14 14 15 14 14 15 16 13 11 19 16 12 12 12 6 6 7 7 6 6 10 9 7 8 8 8 7 7 7
3 4 5 6 7 7 9 11 11 11 11 11 12 13 14 14 13 14 14 13 12 12 12 15 15 12 11 11 14 6 7 7 7 6 6 7 7 7 8 8 8 7 7 7
6 7 8 8 9 10 10 11 11 13 12 11 12 14 15 15 14 13 13 14 13 12 13 19 13 10 10 11 14 7 7 7 7 7 7 7 7 8 8 8 8 8 8 7
6 8 9 10 11 12 10 9 10 12 12 12 13 13 14 14 14 12 12 12 13 17 14 10 10 14 17 19 9 7 7 8 7 6 6 7 7 7 8 8 8 8 7 7
9 9 10 11 12 12 11 10 11 11 12 13 14 14 14 14 12 12 14 10 10 18 15 11 17 24 27 14 7 7 8 7 7 6 7 7 7 7 7 8 7 7 6 7
11 11 11 11 10 11 13 12 11 10 12 12 13 13 13 12 11 10 11 17 22 23 14 16 24 25 23 9 7 8 7 7 6 6 6 6 6 6 6 7 7 6 6 8
12 12 11 10 11 10 11 11 11 11 12 10 12 12 10 9 11 12 12 14 19 22 14 16 22 23 14 8 8 8 7 6 6 6 6 6 6 6 6 6 7 7 7 7
11 10 9 9 10 10 9 9 9 10 10 11 11 10 9 9 11 11 11 13 15 19 15 11 11 13 9 8 8 8 6 6 6 5 6 6 6 6 6 7 8 7 6 6
9 8 8 8 8 8 8 8 10 10 10 11 13 12 11 11 11 12 13 12 12 12 11 10 9 8 8 8 7 6 5 3 3 4 5 5 5 6 6 8 7 6 6 7
Wind_Direction
253 266 268 246 247 229 217 225 241 263 268 277 287 299 302 305 310 311 312 315 313 307 303 296 277 251 234 234 222 211 213 219 223 220 216 213 209 204 198 195 196 194 197 204
262 253 250 253 248 246 246 242 243 263 273 276 294 302 303 309 313 316 317 316 313 311 308 301 287 268 247 238 223 209 218 225 225 218 214 213 210 203 198 196 193 189 196 201
267 272 292 261 235 234 230 218 213 242 260 311 324 321 316 314 317 315 314 311 309 305 299 293 287 273 259 246 221 214 224 229 222 216 216 213 207 203 200 196 191 192 197 200
279 327 240 244 235 223 233 247 234 250 280 298 295 295 287 278 306 320 316 310 306 302 300 296 289 282 269 254 229 225 231 232 224 216 218 212 206 206 202 195 191 195 199 203
225 253 270 286 268 220 214 266 241 233 273 292 297 311 291 283 319 310 304 298 294 292 290 291 293 291 282 267 245 238 240 236 226 217 216 211 210 208 200 193 192 195 197 201
200 228 256 250 253 225 138 277 254 201 304 312 342 336 304 311 319 313 307 301 299 299 299 298 298 300 286 276 260 251 247 240 226 215 215 216 214 208 199 194 194 192 199 201
220 239 263 260 278 127 211 250 289 305 311 310 296 264 277 296 301 300 299 299 301 303 302 298 302 303 286 280 270 265 257 242 227 218 217 217 212 204 194 193 189 192 199 201
205 224 256 252 165 202 238 284 304 305 298 291 285 283 289 295 298 302 303 303 306 308 306 305 305 299 288 284 281 277 261 245 232 221 214 211 207 200 192 191 189 191 194 202
205 226 245 228 227 258 285 292 294 293 292 290 291 294 299 300 302 303 302 303 305 306 308 309 307 297 288 290 293 286 270 253 237 220 210 203 199 196 191 193 195 193 193 202
254 257 259 267 272 275 277 280 287 289 291 293 293 297 301 302 302 303 301 305 308 312 312 310 311 304 288 291 293 284 273 261 237 217 210 203 200 197 197 198 198 195 194 200
258 270 279 258 258 269 280 287 294 297 298 301 302 302 300 301 302 303 303 304 307 306 303 304 306 304 299 296 295 285 275 262 237 218 209 206 207 208 206 209 204 197 197 192
262 267 272 282 282 285 287 290 295 306 314 313 304 298 301 300 299 299 301 303 305 303 303 304 305 303 303 300 293 283 279 264 237 218 210 208 211 221 225 220 223 219 208 196
260 274 276 285 290 288 282 289 301 305 299 300 301 296 298 298 298 299 301 303 302 302 301 301 301 300 302 300 293 278 270 264 240 223 213 210 209 212 220 224 224 221 212 206
267 278 281 283 286 294 288 290 290 292 288 284 288 296 299 297 298 301 301 300 300 300 299 298 298 298 300 299 294 284 273 264 250 227 217 213 212 211 209 206 206 212 215 211
264 254 259 276 280 293 300 305 312 308 305 304 300 301 302 302 302 301 300 299 298 297 297 299 300 300 303 300 294 289 280 266 249 231 220 216 212 209 208 208 210 202 188 206
277 283 269 247 246 275 299 305 302 301 301 300 302 302 300 296 294 295 295 296 299 301 302 301 298 297 300 298 295 292 281 274 264 239 223 215 211 209 208 207 207 202 199 194
255 257 229 239 259 276 280 280 281 287 293 294 295 297 299 300 299 298 298 297 292 291 292 291 291 293 293 291 289 290 283 276 270 253 223 212 208 208 208 207 207 207 205 196
212 207 210 226 246 270 285 288 287 288 287 287 292 296 298 300 299 299 300 301 300 297 292 288 288 292 289 288 285 281 277 268 255 245 227 215 211 207 206 207 207 207 196 200
207 225 246 260 266 271 276 283 285 284 285 289 292 294 293 291 291 292 296 299 300 300 296 292 302 306 297 293 296 280 273 268 259 247 230 225 220 207 205 207 206 201 191 190
293 288 282 281 280 276 278 281 285 288 288 289 291 293 293 293 294 296 297 292 286 282 286 293 296 292 291 291 297 281 269 263 256 246 233 222 214 205 204 204 202 197 192 192
290 288 285 282 282 280 277 280 286 289 290 289 289 290 292 293 294 294 295 296 292 289 292 297 297 292 293 293 295 278 266 260 252 240 230 221 215 208 202 199 198 197 194 191
291 286 283 283 284 286 284 283 285 287 289 289 288 288 292 295 296 293 283 282 288 294 299 294 292 294 299 301 289 276 267 259 251 237 225 217 211 207 201 196 195 195 189 184
289 285 284 285 286 289 290 287 285 285 286 287 289 291 291 291 293 294 296 292 292 298 301 293 295 301 305 305 288 280 272 261 249 233 220 213 209 203 196 192 191 187 179 175
291 289 285 285 289 291 290 288 285 284 282 284 282 281 284 290 291 284 283 293 299 301 299 294 299 303 308 302 290 285 278 262 244 227 214 206 201 194 188 184 181 177 172 170
282 284 285 287 288 286 285 290 291 288 286 285 285 284 280 278 284 292 293 294 296 301 299 298 302 305 304 294 289 285 278 262 244 216 204 195 191 186 180 176 174 170 168 170
279 281 281 276 277 282 286 287 288 289 293 295 295 294 292 290 288 290 293 293 293 298 300 298 299 301 299 296 294 290 283 273 252 216 192 186 181 175 170 168 164 164 163 162
277 278 280 280 279 276 277 281 285 289 291 292 296 297 296 297 297 297 298 298 299 298 298 298 299 299 299 298 297 294 287 268 227 190 176 172 168 165 162 159 158 155 154 155